Regional Weather Roundup
Issued by NWS

Home | Current Version | Previous Version | Text Only | Print | Product List | Glossary Off
Versions: 1 2 3 4 5 6 7 8 9 10 11 12 13 14 15 16 17 18 19 20 21 22 23 24 25 26 27 28 29 30 31 32 33 34 35 36 37 38 39 40 41 42 43 44 45 46 47 48 49 50

172
ASUS45 KBOI 220110
RWRID

IDAHO REGIONAL WEATHER ROUNDUP
NATIONAL WEATHER SERVICE BOISE ID
600 PM MST SAT JAN 21 2017

NOTE: "FAIR" INDICATES FEW OR NO CLOUDS BELOW 12000 FEET
WITH NO SIGNIFICANT WEATHER AND/OR OBSTRUCTIONS TO VISIBILITY

IDZ012-014-220200-
SOUTHWEST IDAHO


CITY           SKY/WX    TMP DP  RH WIND       PRES   REMARKS
BOISE          CLOUDY    36  31  82 SE3       29.72R
CALDWELL       LGT RAIN  35  32  88 E10       29.73R WCI  27
MOUNTAIN HOME  MOCLDY    33  33 100 E7        29.73R WCI  27
$$

IDZ016-017-220200-
SOUTHCENTRAL IDAHO


CITY           SKY/WX    TMP DP  RH WIND       PRES   REMARKS
BURLEY         CLOUDY    34  27  75 SW6       29.73R WCI  29
JEROME         MOCLDY    30  25  81 S3        29.74R
TWIN FALLS     MOCLDY    33  26  75 SW6       29.74R WCI  28
$$

IDZ019>023-220200-
SOUTHEAST IDAHO


CITY           SKY/WX    TMP DP  RH WIND       PRES   REMARKS
IDAHO FALLS    CLOUDY    30  28  92 SW17      29.71R WCI  18
POCATELLO      PTCLDY    31  26  82 S12       29.74R WCI  22
REXBURG        CLOUDY    29  26  89 SW9       29.69R WCI  20
$$

IDZ006-010-011-018-031-032-220200-
CENTRAL IDAHO MOUNTAINS


CITY           SKY/WX    TMP DP  RH WIND       PRES   REMARKS
MCCALL         CLOUDY    30  22  72 S10       29.62R WCI  21
HAILEY         MOCLDY    27  25  93 CALM      29.70R
STANLEY          N/A     25  21  85 CALM      29.65R
SALMON         CLOUDY    18  14  86 CALM      29.68R
CHALLIS        MOCLDY    12  10  92 SW3       29.66R
$$

IDZ002-004-006-007-026-220200-
NORTHERN IDAHO


CITY           SKY/WX    TMP DP  RH WIND       PRES   REMARKS
LEWISTON       CLOUDY    42  30  62 E5        29.61R
LOWELL           N/A     34  32  92 CALM      29.68R
COEUR D`ALENE  CLOUDY    34  32  92 N13       29.61R WCI  25
MULLAN PASS    FOG       25  23  92 S5        29.54R VSB 1/2 WCI  19
$$




USA.gov is the U.S. government's official web portal to all federal, state and local government web resources and services.